sat.trackr.live / text

‹ back to catalog

STARLINK-5162

NORAD 54184 · 2022-141AD

PAYLOAD ACTIVE UNKNOWN

§ Identity

Operator
Country
US
Launch date
2022-10-28
Launch site
AFWTR
Launch vehicle
Mass (kg)
RCS (m²)

Purposes: comms

External: N2YO · Heavens-Above · Gunter

§ Orbital elements

Epoch: 2026-05-25T01:45:47.591136Z

Period
95.44 min
Inclination
53.2148°
Eccentricity
0.0001269
Mean motion
15.08849141 rev/d
Perigee alt
538.8 km
Apogee alt
540.6 km
Semi-major
6,917.9 km
B*
-2.3552e-5
RAAN
21.5811°
Arg perigee
86.9354°
Mean anomaly
273.1783°
Rev number
19,738

§ Raw data

STARLINK-51621 54184U 22141AD  26145.07346749 -.00000663  00000+0 -23552-4 0  99972 54184  53.2148  21.5811 0001269  86.9354 273.1783 15.08849141197388

JSON: /api/v1/satellites/54184 · /tle

For live sub-satellite position, see the globe view (requires WebGL).

§ Visibility from observer

Set your observer location to see the next 7 days of passes ≥ 10°. The values pass through the URL so the page stays shareable.

No JS? Fill the form by hand. The geolocation button needs JavaScript.